Flag for U.S.A. Weather past 2 weeks in Palestine, Texas, U.S.A.

Now
84 °F

Sunny.


Feels Like: 89 °F
Forecast: 77 / 92 °F
Wind: 5 mph from Southeast

Location: Palestine Municipal Airport

Current Time: Jul 6, 2015 at 9:56:20 PM

Latest Report: Jul 6, 2015 at 9:15 PM


Visibility: 10 mi

Pressure: 29.96 "Hg

Humidity: 67%

Dew point: 71 °F

Location of PalestineLocation

Historic Weather in Palestine — Graph

°F

Palestine temperature yesterday

Maximum temperature yesterday: 94 °F (at 4:15 PM)
Minimum temperature yesterday: 76 °F (at 3:35 AM)
Average temperature yesterday: 84 °F

Past Weeks' High & Low Weather Summary

 TemperatureHumidityPressure
High94 °F (Jul 5, 4:15 PM)100% (Jun 22, 4:35 AM)30.20 "Hg (Jun 22, 4:35 AM)
Low68 °F (Jun 28, 6:35 AM)35% (Jun 28, 3:35 PM)29.92 "Hg (Jun 26, 8:55 PM)
Average82 °F76%30.04 "Hg
* Reported Jun 21 8:15 PM — Jul 6 8:15 PM, Palestine, Weather by CustomWeather, © 2015

Note: Actual official high and low records may vary slightly from our data, if they occured in-between our weather recording intervals... More about our weather records

Advertising

Palestine weather history for previous 24 hours

 ConditionsComfort  
Time TempWeatherWind HumidityBarometerVisibility
8:15 PM
Mon, Jul 6
86 °FSunny.8 mph62%29.92 "Hg10 mi
7:55 PM86 °FSunny.9 mph61%29.93 "Hg10 mi
7:35 PM87 °FSunny.9 mph61%29.93 "Hg7 mi
7:15 PM88 °FSunny.10 mph59%29.93 "Hg7 mi
6:55 PM89 °FSunny.8 mph55%29.94 "Hg7 mi
6:35 PM91 °FScattered clouds.9 mph51%29.95 "Hg7 mi
6:15 PM90 °FScattered clouds.12 mph51%29.97 "Hg7 mi
5:55 PM91 °FScattered clouds.8 mph53%29.98 "Hg7 mi
5:35 PM91 °FSunny.8 mph52%29.99 "Hg7 mi
5:15 PM92 °FSunny.14 mph49%30.00 "Hg7 mi
4:55 PM92 °FScattered clouds.10 mph49%30.01 "Hg7 mi
4:15 PM92 °FScattered clouds.9 mph48%30.02 "Hg7 mi
3:55 PM93 °FSunny.10 mph45%30.03 "Hg7 mi
3:35 PM94 °FScattered clouds.15 mph43%30.03 "Hg7 mi
3:15 PM91 °FScattered clouds.14 mph47%30.04 "Hg7 mi
2:55 PM91 °FScattered clouds.15 mph47%30.04 "Hg7 mi
2:35 PM91 °FScattered clouds.14 mph49%30.05 "Hg7 mi
2:15 PM90 °FBroken clouds.14 mph52%30.06 "Hg7 mi
1:55 PM89 °FPartly sunny.14 mph54%30.06 "Hg7 mi
1:35 PM90 °FScattered clouds.13 mph55%30.07 "Hg7 mi
1:15 PM88 °FBroken clouds.9 mph57%30.07 "Hg7 mi
12:55 PM89 °FBroken clouds.10 mph58%30.08 "Hg7 mi
12:35 PM89 °FSunny.12 mph57%30.08 "Hg10 mi
12:15 PM88 °FScattered clouds.14 mph60%30.08 "Hg10 mi
11:55 AM88 °FScattered clouds.16 mph60%30.08 "Hg7 mi
11:35 AM88 °FScattered clouds.14 mph62%30.09 "Hg10 mi
11:15 AM86 °FScattered clouds.13 mph67%30.09 "Hg10 mi
10:55 AM86 °FScattered clouds.10 mph69%30.10 "Hg10 mi
10:35 AM84 °FScattered clouds.13 mph72%30.10 "Hg10 mi
10:15 AM83 °FScattered clouds.7 mph75%30.10 "Hg10 mi
9:55 AM83 °FBroken clouds.10 mph76%30.10 "Hg10 mi
9:35 AM82 °FCloudy.13 mph79%30.10 "Hg10 mi
9:15 AM82 °FPartly sunny.9 mph82%30.10 "Hg10 mi
8:55 AM81 °FPartly sunny.13 mph84%30.09 "Hg7 mi
8:35 AM80 °FPartly sunny.8 mph86%30.09 "Hg7 mi
8:15 AM79 °FLow clouds.9 mph90%30.09 "Hg7 mi
7:35 AM77 °FScattered clouds.3 mph94%30.08 "Hg7 mi
7:15 AM77 °FPassing clouds.6 mph94%30.08 "Hg7 mi
6:55 AM76 °FPassing clouds.5 mph95%30.07 "Hg7 mi
6:35 AM77 °FPassing clouds.5 mph94%30.06 "Hg7 mi
6:15 AM77 °FPassing clouds.6 mph93%30.06 "Hg7 mi
5:55 AM77 °FOvercast.5 mph93%30.06 "Hg7 mi
5:35 AM77 °FOvercast.6 mph93%30.05 "Hg7 mi
5:15 AM77 °FOvercast.6 mph92%30.05 "Hg7 mi
4:55 AM77 °FPassing clouds.6 mph91%30.04 "Hg7 mi
4:35 AM77 °FClear.5 mph91%30.04 "Hg7 mi
4:15 AM77 °FClear.6 mph90%30.03 "Hg7 mi
3:55 AM78 °FClear.8 mph90%30.03 "Hg7 mi
3:35 AM78 °FClear.7 mph89%30.03 "Hg7 mi
3:15 AM78 °FClear.8 mph88%30.02 "Hg10 mi
2:55 AM79 °FClear.8 mph86%30.02 "Hg10 mi
2:35 AM79 °FClear.10 mph86%30.02 "Hg10 mi
2:15 AM79 °FClear.9 mph86%30.02 "Hg10 mi
1:55 AM80 °FClear.8 mph84%30.03 "Hg10 mi
1:15 AM80 °FClear.8 mph82%30.03 "Hg10 mi
12:55 AM81 °FClear.8 mph82%30.03 "Hg10 mi
12:15 AM81 °FClear.7 mph83%30.04 "Hg4 mi
11:55 PM
Sun, Jul 5
81 °FClear.9 mph83%30.04 "Hg5 mi
11:35 PM82 °FClear.9 mph82%30.04 "Hg7 mi
11:15 PM82 °FClear.9 mph80%30.04 "Hg7 mi
10:15 PM83 °FClear.6 mph72%30.03 "Hg10 mi
9:55 PM83 °FClear.6 mph70%30.03 "Hg10 mi
9:35 PM84 °FClear.6 mph70%30.02 "Hg10 mi
9:15 PM84 °FSunny.5 mph69%30.01 "Hg10 mi
Weather by CustomWeather, © 2015

See weather overviewHow to use our weather pages